Radiation Dose at Monitoring Post of Fukushima Daini Nuclear Power Station
Date,Time,MP-1(microSv/h),MP-2(microSv/h),MP-3(microSv/h),MP-4(microSv/h),MP-5(microSv/h),MP-6(microSv/h),MP-7(microSv/h),Wind Direction,Wind Velocity(m/s),Rain
2022/03/21,00:00,0.155,0.143,0.223,0.217,0.221,0.124,0.079,north-northwest,1.3,No
2022/03/21,00:10,0.155,0.142,0.225,0.216,0.221,0.123,0.079,north-northeast,1.0,No
2022/03/21,00:20,0.155,0.142,0.224,0.217,0.221,0.123,0.079,northeast,1.9,No
2022/03/21,00:30,0.155,0.143,0.224,0.216,0.220,0.123,0.078,northeast,2.2,No
2022/03/21,00:40,0.155,0.143,0.223,0.216,0.220,0.123,0.078,northeast,2.1,No
2022/03/21,00:50,0.155,0.142,0.223,0.216,0.221,0.123,0.078,north-northeast,1.3,No
2022/03/21,01:00,0.157,0.142,0.224,0.217,0.220,0.124,0.079,northeast,1.6,No
2022/03/21,01:10,0.155,0.142,0.224,0.217,0.220,0.124,0.079,north,1.9,No
2022/03/21,01:20,0.156,0.143,0.224,0.217,0.220,0.123,0.079,north-northeast,2.2,No
2022/03/21,01:30,0.155,0.143,0.224,0.217,0.221,0.123,0.079,north,2.1,No
2022/03/21,01:40,0.156,0.143,0.225,0.218,0.222,0.122,0.078,north,2.4,No
2022/03/21,01:50,0.155,0.143,0.224,0.216,0.221,0.124,0.079,north,1.3,No
2022/03/21,02:00,0.156,0.142,0.223,0.217,0.221,0.123,0.079,north-northeast,1.4,No
2022/03/21,02:10,0.156,0.142,0.225,0.217,0.220,0.123,0.078,north,1.9,No
2022/03/21,02:20,0.155,0.142,0.225,0.217,0.220,0.123,0.079,north,1.8,No
2022/03/21,02:30,0.155,0.143,0.224,0.218,0.221,0.123,0.078,north,1.3,No
2022/03/21,02:40,0.154,0.142,0.224,0.216,0.220,0.123,0.079,north-northeast,1.6,No
2022/03/21,02:50,0.156,0.143,0.225,0.217,0.220,0.124,0.080,north-northeast,1.0,No
2022/03/21,03:00,0.155,0.142,0.224,0.217,0.220,0.124,0.078,east-northeast,1.1,No
2022/03/21,03:10,0.155,0.143,0.224,0.217,0.221,0.123,0.079,east,1.4,No
2022/03/21,03:20,0.155,0.142,0.225,0.218,0.221,0.124,0.079,east-southeast,1.3,No
2022/03/21,03:30,0.155,0.143,0.225,0.217,0.221,0.124,0.079,east,0.8,No
2022/03/21,03:40,0.155,0.142,0.225,0.217,0.221,0.124,0.079,east,1.8,No
2022/03/21,03:50,0.155,0.143,0.225,0.218,0.220,0.124,0.078,east-southeast,1.6,No
2022/03/21,04:00,0.156,0.142,0.225,0.216,0.221,0.123,0.078,southeast,2.1,No
2022/03/21,04:10,0.156,0.142,0.224,0.217,0.220,0.123,0.079,east-southeast,2.2,No
2022/03/21,04:20,0.156,0.143,0.225,0.217,0.220,0.123,0.078,south-southeast,1.9,No
2022/03/21,04:30,0.155,0.143,0.225,0.217,0.219,0.123,0.079,southwest,1.4,No
2022/03/21,04:40,0.155,0.143,0.224,0.217,0.221,0.123,0.079,west,1.8,No
2022/03/21,04:50,0.156,0.144,0.224,0.217,0.220,0.124,0.079,west,1.8,No
2022/03/21,05:00,0.155,0.143,0.225,0.217,0.221,0.124,0.078,west-northwest,1.6,No
2022/03/21,05:10,0.156,0.142,0.225,0.216,0.220,0.124,0.078,north-northwest,3.3,No
2022/03/21,05:20,0.156,0.142,0.223,0.216,0.220,0.124,0.078,north-northwest,6.4,No
2022/03/21,05:30,0.155,0.142,0.225,0.217,0.221,0.123,0.079,north,4.1,No
2022/03/21,05:40,0.155,0.142,0.225,0.218,0.222,0.124,0.079,north-northwest,3.0,No
2022/03/21,05:50,0.155,0.143,0.224,0.217,0.220,0.123,0.078,north-northwest,1.9,No
2022/03/21,06:00,0.155,0.143,0.224,0.217,0.221,0.123,0.079,northeast,2.4,No
2022/03/21,06:10,0.156,0.143,0.224,0.217,0.220,0.123,0.079,east,3.0,No
2022/03/21,06:20,0.156,0.142,0.226,0.217,0.221,0.125,0.078,east-northeast,1.9,No
2022/03/21,06:30,0.155,0.143,0.224,0.218,0.221,0.123,0.079,northeast,1.9,No
2022/03/21,06:40,0.155,0.143,0.223,0.217,0.220,0.124,0.079,east-northeast,1.6,No
2022/03/21,06:50,0.156,0.142,0.224,0.218,0.221,0.124,0.079,east-northeast,2.2,No
2022/03/21,07:00,0.155,0.142,0.224,0.217,0.221,0.123,0.079,east-northeast,1.3,No
2022/03/21,07:10,0.156,0.143,0.225,0.217,0.221,0.123,0.079,east-northeast,1.0,No
2022/03/21,07:20,0.155,0.142,0.225,0.217,0.221,0.124,0.078,south,0.8,No
2022/03/21,07:30,0.155,0.141,0.224,0.216,0.221,0.124,0.078,east-southeast,1.1,No
2022/03/21,07:40,0.156,0.142,0.223,0.216,0.221,0.123,0.078,east-southeast,1.4,No
2022/03/21,07:50,0.155,0.142,0.224,0.216,0.221,0.124,0.078,east-southeast,3.3,No
2022/03/21,08:00,0.155,0.143,0.223,0.216,0.221,0.124,0.078,southeast,2.5,No
2022/03/21,08:10,0.156,0.142,0.225,0.216,0.222,0.122,0.078,southeast,1.9,No
2022/03/21,08:20,0.155,0.141,0.223,0.216,0.221,0.124,0.079,southeast,1.9,No
2022/03/21,08:30,0.155,0.142,0.224,0.217,0.221,0.123,0.078,southeast,2.7,No
2022/03/21,08:40,0.155,0.142,0.224,0.216,0.220,0.123,0.078,southeast,3.3,No
2022/03/21,08:50,0.156,0.142,0.223,0.216,0.221,0.123,0.078,south-southeast,3.5,No
2022/03/21,09:00,0.155,0.142,0.222,0.215,0.221,0.124,0.078,south-southeast,3.5,No
2022/03/21,09:10,0.154,0.141,0.223,0.216,0.221,0.122,0.078,south-southeast,3.8,No
2022/03/21,09:20,0.154,0.143,0.223,0.215,0.219,0.124,0.078,southeast,3.8,No
2022/03/21,09:30,0.155,0.142,0.224,0.216,0.221,0.123,0.079,southeast,3.3,No
2022/03/21,09:40,0.155,0.141,0.225,0.216,0.220,0.123,0.078,south-southeast,3.3,No
2022/03/21,09:50,0.155,0.142,0.224,0.217,0.220,0.124,0.079,south-southeast,2.9,No
2022/03/21,10:00,0.155,0.142,0.224,0.217,0.221,0.123,0.078,south-southeast,3.2,No
2022/03/21,10:10,0.155,0.141,0.223,0.217,0.220,0.124,0.079,southeast,4.8,No
2022/03/21,10:20,0.154,0.141,0.225,0.217,0.221,0.123,0.078,southeast,4.7,No
2022/03/21,10:30,0.154,0.142,0.222,0.216,0.220,0.123,0.079,southeast,4.1,No
2022/03/21,10:40,0.156,0.143,0.223,0.216,0.222,0.123,0.079,east-southeast,4.0,No
2022/03/21,10:50,0.154,0.142,0.224,0.217,0.222,0.123,0.079,east-southeast,2.9,No
2022/03/21,11:00,0.155,0.142,0.222,0.217,0.222,0.123,0.078,southeast,3.8,No
2022/03/21,11:10,0.155,0.142,0.225,0.217,0.221,0.123,0.078,southeast,3.3,No
2022/03/21,11:20,0.155,0.142,0.223,0.216,0.221,0.123,0.079,southeast,3.0,No
2022/03/21,11:30,0.154,0.143,0.225,0.217,0.221,0.124,0.079,south-southeast,3.5,No
2022/03/21,11:40,0.155,0.142,0.224,0.216,0.221,0.124,0.078,southeast,3.0,No
2022/03/21,11:50,0.155,0.143,0.224,0.218,0.221,0.124,0.078,southeast,3.8,No
2022/03/21,12:00,0.155,0.143,0.224,0.217,0.222,0.124,0.078,southeast,3.2,No
2022/03/21,12:10,0.155,0.142,0.224,0.218,0.221,0.124,0.079,southeast,3.8,No
2022/03/21,12:20,0.155,0.143,0.226,0.217,0.220,0.124,0.079,south-southeast,3.5,No
2022/03/21,12:30,0.156,0.142,0.223,0.217,0.221,0.123,0.078,south-southeast,3.7,No
2022/03/21,12:40,0.156,0.143,0.225,0.217,0.221,0.123,0.079,south-southeast,3.7,No
2022/03/21,12:50,0.155,0.143,0.224,0.217,0.222,0.125,0.079,south-southeast,4.7,No
2022/03/21,13:00,0.155,0.143,0.225,0.218,0.220,0.123,0.079,south-southeast,6.0,No
2022/03/21,13:10,0.156,0.143,0.225,0.217,0.223,0.124,0.079,south-southeast,5.7,No
2022/03/21,13:20,0.155,0.143,0.224,0.217,0.221,0.123,0.079,south-southeast,5.1,No
2022/03/21,13:30,0.156,0.142,0.226,0.219,0.222,0.124,0.078,south-southeast,4.1,No
2022/03/21,13:40,0.156,0.142,0.224,0.217,0.221,0.124,0.079,south-southeast,4.4,No
2022/03/21,13:50,0.155,0.142,0.225,0.219,0.222,0.123,0.079,south-southeast,6.5,No
2022/03/21,14:00,0.155,0.142,0.226,0.219,0.220,0.125,0.079,south-southeast,5.5,No
2022/03/21,14:10,0.156,0.142,0.224,0.217,0.221,0.124,0.079,south-southeast,7.4,No
2022/03/21,14:20,0.155,0.142,0.225,0.219,0.222,0.124,0.078,south-southeast,6.1,No
2022/03/21,14:30,0.157,0.142,0.225,0.217,0.221,0.124,0.078,south-southeast,6.3,No
2022/03/21,14:40,0.155,0.143,0.225,0.218,0.222,0.125,0.078,south-southeast,5.0,No
2022/03/21,14:50,0.156,0.143,0.226,0.219,0.223,0.125,0.079,south-southeast,5.1,No
2022/03/21,15:00,0.155,0.141,0.225,0.218,0.222,0.126,0.079,south-southeast,5.5,No
2022/03/21,15:10,0.155,0.143,0.225,0.218,0.222,0.124,0.079,southeast,5.2,No
2022/03/21,15:20,0.155,0.142,0.225,0.218,0.221,0.125,0.078,east-southeast,4.7,No
2022/03/21,15:30,0.156,0.143,0.225,0.218,0.222,0.123,0.079,southeast,5.0,No
2022/03/21,15:40,0.157,0.143,0.226,0.218,0.222,0.125,0.079,east-southeast,5.5,No
2022/03/21,15:50,0.155,0.144,0.225,0.219,0.221,0.124,0.079,east-southeast,5.7,No
2022/03/21,16:00,0.156,0.143,0.225,0.219,0.223,0.124,0.078,east-southeast,5.0,No
2022/03/21,16:10,0.155,0.143,0.225,0.217,0.221,0.124,0.079,east-southeast,5.0,No
2022/03/21,16:20,0.155,0.143,0.226,0.219,0.221,0.124,0.079,east-southeast,4.9,No
2022/03/21,16:30,0.156,0.143,0.226,0.219,0.223,0.124,0.079,east-southeast,4.1,No
2022/03/21,16:40,0.156,0.143,0.227,0.219,0.220,0.124,0.078,southeast,4.1,No
2022/03/21,16:50,0.156,0.143,0.226,0.219,0.222,0.124,0.079,southeast,3.0,No
2022/03/21,17:00,0.157,0.143,0.225,0.218,0.222,0.124,0.079,southeast,2.4,No
2022/03/21,17:10,0.157,0.142,0.226,0.219,0.221,0.124,0.079,southeast,2.1,No
2022/03/21,17:20,0.155,0.143,0.225,0.219,0.222,0.124,0.078,south-southeast,1.1,No
2022/03/21,17:30,0.155,0.144,0.226,0.219,0.222,0.124,0.080,south-southeast,1.0,No
2022/03/21,17:40,0.157,0.143,0.227,0.218,0.221,0.124,0.078,south-southeast,0.8,No
2022/03/21,17:50,0.156,0.143,0.227,0.219,0.222,0.124,0.079,south-southeast,1.0,No
2022/03/21,18:00,0.156,0.143,0.225,0.219,0.222,0.124,0.078,south-southeast,1.3,No
2022/03/21,18:10,0.156,0.143,0.225,0.218,0.222,0.123,0.079,east-southeast,0.5,No
2022/03/21,18:20,0.156,0.142,0.225,0.218,0.221,0.124,0.079,south-southeast,0.7,No
2022/03/21,18:30,0.156,0.144,0.225,0.219,0.222,0.124,0.079,southeast,0.8,No
2022/03/21,18:40,0.155,0.144,0.225,0.217,0.222,0.124,0.080,-,CALM,No
2022/03/21,18:50,0.155,0.142,0.226,0.218,0.221,0.123,0.078,-,CALM,No
2022/03/21,19:00,0.156,0.142,0.225,0.219,0.221,0.124,0.079,south-southeast,1.3,No
2022/03/21,19:10,0.156,0.143,0.226,0.219,0.221,0.123,0.079,southeast,1.3,No
2022/03/21,19:20,0.156,0.143,0.226,0.219,0.222,0.124,0.078,southeast,1.4,No
2022/03/21,19:30,0.156,0.143,0.227,0.219,0.221,0.124,0.079,southeast,0.8,No
2022/03/21,19:40,0.156,0.142,0.226,0.218,0.222,0.124,0.080,south-southeast,1.3,No
2022/03/21,19:50,0.156,0.143,0.225,0.218,0.223,0.124,0.079,southeast,1.0,No
2022/03/21,20:00,0.156,0.144,0.227,0.218,0.222,0.124,0.078,south-southeast,0.7,No
2022/03/21,20:10,0.157,0.142,0.226,0.218,0.221,0.123,0.078,south-southeast,1.0,No
2022/03/21,20:20,0.156,0.143,0.226,0.218,0.222,0.125,0.079,-,CALM,No
2022/03/21,20:30,0.156,0.143,0.225,0.219,0.222,0.124,0.078,south-southeast,0.7,No
2022/03/21,20:40,0.155,0.144,0.226,0.219,0.221,0.124,0.079,southeast,0.7,No
2022/03/21,20:50,0.156,0.143,0.226,0.218,0.220,0.124,0.079,southeast,0.5,No
2022/03/21,21:00,0.155,0.143,0.227,0.218,0.221,0.124,0.079,south-southeast,0.8,No
2022/03/21,21:10,0.156,0.143,0.227,0.217,0.221,0.125,0.079,southeast,1.1,No
2022/03/21,21:20,0.156,0.143,0.225,0.219,0.221,0.124,0.079,southeast,1.3,No
2022/03/21,21:30,0.156,0.142,0.226,0.218,0.222,0.125,0.079,southeast,0.5,No
2022/03/21,21:40,0.156,0.143,0.226,0.218,0.221,0.124,0.078,east-southeast,0.8,Yes
2022/03/21,21:50,0.156,0.144,0.225,0.217,0.221,0.124,0.078,southeast,0.7,Yes
2022/03/21,22:00,0.156,0.143,0.226,0.218,0.221,0.124,0.079,southeast,1.3,Yes
2022/03/21,22:10,0.157,0.142,0.227,0.219,0.222,0.124,0.079,east-southeast,1.3,Yes
2022/03/21,22:20,0.156,0.143,0.226,0.219,0.222,0.125,0.079,southeast,1.3,Yes
2022/03/21,22:30,0.157,0.144,0.228,0.218,0.221,0.124,0.080,east-southeast,1.6,Yes
2022/03/21,22:40,0.157,0.144,0.228,0.219,0.222,0.125,0.079,southeast,1.3,Yes
2022/03/21,22:50,0.157,0.144,0.227,0.219,0.223,0.125,0.079,south-southeast,1.3,Yes
2022/03/21,23:00,0.157,0.144,0.227,0.219,0.222,0.125,0.080,southeast,0.7,Yes
2022/03/21,23:10,0.158,0.145,0.226,0.219,0.221,0.124,0.079,south-southeast,0.7,Yes
2022/03/21,23:20,0.158,0.145,0.228,0.218,0.223,0.125,0.079,south-southeast,1.4,Yes
2022/03/21,23:30,0.157,0.144,0.227,0.220,0.223,0.125,0.080,southeast,0.7,Yes
2022/03/21,23:40,0.156,0.144,0.227,0.219,0.222,0.124,0.080,-,CALM,Yes
2022/03/21,23:50,0.157,0.144,0.227,0.219,0.222,0.125,0.079,-,CALM,Yes
